When you browse on this site, cookies collect data to enhance your experience and personalize the content and advertising you see.
Visit our Privacy Policy to learn more. By continuing to use the site, you agree to this use of cookies and data.
  • In Österreich
  • Länderverzeichnis
  • Für 7 Tage
  • Wassertemperatur
  • Satellitenkarten
  • Wetterkarte
  • News
  • Widgets
  • user-avatar
    Anmelden

    Stündliche Wetter Malanje

    Heute, 16 Juli, Dienstag

    Zeit Temperatur Niederschläge Wind Luftdruck Luftfeuchtigkeit
    00:00 +19°C° 0 mm 1 m/S 665 mmHg 38%
    01:00 +16°C° 0 mm 0 m/S 665 mmHg 33%
    02:00 +16°C° 0 mm 1 m/S 665 mmHg 33%
    03:00 +15°C° 0 mm 1 m/S 665 mmHg 33%
    04:00 +15°C° 0 mm 1 m/S 665 mmHg 33%
    05:00 +15°C° 0 mm 2 m/S 665 mmHg 33%
    06:00 +15°C° 0 mm 2 m/S 665 mmHg 33%
    07:00 +14°C° 0 mm 3 m/S 666 mmHg 33%
    08:00 +19°C° 0 mm 3 m/S 667 mmHg 28%
    09:00 +24°C° 0 mm 3 m/S 667 mmHg 23%
    10:00 +28°C° 0 mm 3 m/S 668 mmHg 18%
    11:00 +30°C° 0 mm 3 m/S 668 mmHg 16%
    12:00 +32°C° 0 mm 2 m/S 668 mmHg 14%
    13:00 +35°C° 0 mm 2 m/S 668 mmHg 12%
    14:00 +35°C° 0 mm 2 m/S 667 mmHg 12%
    15:00 +35°C° 0 mm 2 m/S 666 mmHg 12%
    16:00 +34°C° 0 mm 1 m/S 666 mmHg 12%
    17:00 +30°C° 0 mm 1 m/S 665 mmHg 15%
    18:00 +27°C° 0 mm 1 m/S 665 mmHg 19%
    19:00 +22°C° 0 mm 0 m/S 665 mmHg 22%
    20:00 +21°C° 0 mm 0 m/S 665 mmHg 24%
    21:00 +20°C° 0 mm 0 m/S 665 mmHg 25%
    22:00 +19°C° 0 mm 0 m/S 666 mmHg 27%
    23:00 +20°C° 0 mm 1 m/S 666 mmHg 29%

    Morgen, 17 Juli, Mittwoch

    Zeit Temperatur Niederschläge Wind Luftdruck Luftfeuchtigkeit
    00:00 +20°C° 0 mm 1 m/S 666 mmHg 32%
    01:00 +19°C° 0 mm 1 m/S 665 mmHg 35%
    02:00 +18°C° 0 mm 1 m/S 665 mmHg 34%
    03:00 +16°C° 0 mm 1 m/S 665 mmHg 33%
    04:00 +16°C° 0 mm 1 m/S 665 mmHg 32%
    05:00 +16°C° 0 mm 1 m/S 665 mmHg 30%
    06:00 +16°C° 0 mm 1 m/S 666 mmHg 28%
    07:00 +16°C° 0 mm 2 m/S 667 mmHg 26%
    08:00 +20°C° 0 mm 2 m/S 668 mmHg 23%
    09:00 +24°C° 0 mm 2 m/S 668 mmHg 20%
    10:00 +28°C° 0 mm 3 m/S 669 mmHg 17%
    11:00 +30°C° 0 mm 3 m/S 669 mmHg 16%
    12:00 +33°C° 0 mm 3 m/S 668 mmHg 15%
    13:00 +35°C° 0 mm 3 m/S 668 mmHg 14%
    14:00 +35°C° 0 mm 3 m/S 668 mmHg 14%
    15:00 +34°C° 0 mm 3 m/S 667 mmHg 15%
    16:00 +34°C° 0 mm 2 m/S 666 mmHg 15%
    17:00 +30°C° 0 mm 2 m/S 666 mmHg 18%
    18:00 +27°C° 0 mm 2 m/S 666 mmHg 21%
    19:00 +24°C° 0 mm 1 m/S 666 mmHg 25%
    20:00 +23°C° 0 mm 1 m/S 666 mmHg 26%
    21:00 +20°C° 0 mm 0 m/S 666 mmHg 28%
    22:00 +20°C° 0 mm 0 m/S 666 mmHg 30%
    23:00 +19°C° 0 mm 0 m/S 666 mmHg 34%

    übermorgen, 18 Juli, Donnerstag

    Zeit Temperatur Niederschläge Wind Luftdruck Luftfeuchtigkeit
    00:00 +18°C° 0 mm 0 m/S 665 mmHg 38%
    01:00 +19°C° 0 mm 1 m/S 665 mmHg 42%
    02:00 +18°C° 0 mm 1 m/S 665 mmHg 44%
    03:00 +18°C° 0 mm 1 m/S 665 mmHg 47%
    04:00 +16°C° 0 mm 1 m/S 665 mmHg 49%
    05:00 +16°C° 0 mm 1 m/S 665 mmHg 45%
    06:00 +16°C° 0 mm 2 m/S 665 mmHg 40%
    07:00 +16°C° 0 mm 2 m/S 666 mmHg 36%
    08:00 +20°C° 0 mm 3 m/S 667 mmHg 30%
    09:00 +25°C° 0 mm 3 m/S 667 mmHg 24%
    10:00 +29°C° 0 mm 3 m/S 668 mmHg 19%
    11:00 +31°C° 0 mm 3 m/S 668 mmHg 17%
    12:00 +34°C° 0 mm 3 m/S 667 mmHg 15%
    13:00 +36°C° 0 mm 3 m/S 667 mmHg 13%
    14:00 +35°C° 0 mm 3 m/S 666 mmHg 13%
    15:00 +35°C° 0 mm 2 m/S 666 mmHg 13%
    16:00 +35°C° 0 mm 2 m/S 665 mmHg 13%
    17:00 +31°C° 0 mm 2 m/S 665 mmHg 16%
    18:00 +28°C° 0 mm 1 m/S 665 mmHg 19%
    19:00 +25°C° 0 mm 1 m/S 664 mmHg 22%
    20:00 +24°C° 0 mm 1 m/S 665 mmHg 24%
    21:00 +23°C° 0 mm 1 m/S 665 mmHg 26%
    22:00 +22°C° 0 mm 1 m/S 665 mmHg 27%
    23:00 +21°C° 0 mm 1 m/S 665 mmHg 35%

    19 Juli, Freitag

    Zeit Temperatur Niederschläge Wind Luftdruck Luftfeuchtigkeit
    00:00 +19°C° 0 mm 1 m/S 665 mmHg 43%
    01:00 +18°C° 0 mm 1 m/S 664 mmHg 50%
    02:00 +16°C° 0 mm 1 m/S 664 mmHg 54%
    03:00 +16°C° 0 mm 1 m/S 664 mmHg 59%
    04:00 +15°C° 0 mm 1 m/S 664 mmHg 63%
    05:00 +15°C° 0 mm 1 m/S 665 mmHg 56%
    06:00 +15°C° 0 mm 1 m/S 665 mmHg 50%
    07:00 +16°C° 0 mm 1 m/S 665 mmHg 44%
    08:00 +20°C° 0 mm 2 m/S 666 mmHg 36%
    09:00 +25°C° 0 mm 3 m/S 667 mmHg 27%
    10:00 +29°C° 0 mm 4 m/S 668 mmHg 19%
    11:00 +30°C° 0 mm 4 m/S 667 mmHg 17%
    12:00 +33°C° 0 mm 3 m/S 667 mmHg 15%
    13:00 +35°C° 0 mm 3 m/S 667 mmHg 13%
    14:00 +35°C° 0 mm 3 m/S 666 mmHg 13%
    15:00 +35°C° 0 mm 2 m/S 666 mmHg 12%
    16:00 +35°C° 0 mm 2 m/S 665 mmHg 12%
    17:00 +31°C° 0 mm 2 m/S 665 mmHg 15%
    18:00 +28°C° 0 mm 2 m/S 665 mmHg 19%
    19:00 +24°C° 0 mm 1 m/S 664 mmHg 22%
    20:00 +23°C° 0 mm 1 m/S 665 mmHg 24%
    21:00 +22°C° 0 mm 1 m/S 665 mmHg 27%
    22:00 +21°C° 0 mm 1 m/S 665 mmHg 30%
    23:00 +19°C° 0 mm 1 m/S 665 mmHg 44%

    20 Juli, Samstag

    Zeit Temperatur Niederschläge Wind Luftdruck Luftfeuchtigkeit
    00:00 +18°C° 0 mm 1 m/S 665 mmHg 57%
    01:00 +16°C° 0 mm 1 m/S 664 mmHg 71%
    02:00 +15°C° 0 mm 1 m/S 664 mmHg 80%
    03:00 +14°C° 0 mm 1 m/S 664 mmHg 88%
    04:00 +13°C° 0 mm 1 m/S 664 mmHg 96%
    05:00 +14°C° 0 mm 1 m/S 665 mmHg 93%
    06:00 +14°C° 0 mm 1 m/S 666 mmHg 91%
    07:00 +14°C° 0 mm 1 m/S 666 mmHg 88%
    08:00 +20°C° 0 mm 1 m/S 667 mmHg 65%
    09:00 +24°C° 0 mm 1 m/S 668 mmHg 43%
    10:00 +28°C° 0 mm 1 m/S 669 mmHg 21%
    11:00 +30°C° 0 mm 1 m/S 668 mmHg 17%
    12:00 +32°C° 0 mm 1 m/S 668 mmHg 14%
    13:00 +34°C° 0 mm 1 m/S 668 mmHg 10%
    14:00 +34°C° 0 mm 1 m/S 667 mmHg 10%
    15:00 +34°C° 0 mm 1 m/S 666 mmHg 10%
    16:00 +33°C° 0 mm 1 m/S 666 mmHg 10%
    17:00 +30°C° 0 mm 1 m/S 665 mmHg 12%
    18:00 +25°C° 0 mm 0 m/S 665 mmHg 14%
    19:00 +21°C° 0 mm 0 m/S 665 mmHg 17%
    20:00 +22°C° 0 mm 1 m/S 665 mmHg 27%
    21:00 +20°C° 0 mm 2 m/S 665 mmHg 36%
    22:00 +19°C° 0 mm 3 m/S 665 mmHg 46%
    23:00 +18°C° 0 mm 3 m/S 665 mmHg 59%

    21 Juli, Sonntag

    Zeit Temperatur Niederschläge Wind Luftdruck Luftfeuchtigkeit
    00:00 +17°C° 0 mm 3 m/S 665 mmHg 71%
    01:00 +16°C° 0 mm 3 m/S 665 mmHg 83%
    02:00 +14°C° 0 mm 3 m/S 665 mmHg 87%
    03:00 +14°C° 0 mm 3 m/S 665 mmHg 90%
    04:00 +14°C° 0 mm 3 m/S 665 mmHg 93%
    05:00 +15°C° 0 mm 2 m/S 666 mmHg 91%
    06:00 +15°C° 0 mm 2 m/S 666 mmHg 89%
    07:00 +15°C° 0 mm 2 m/S 667 mmHg 87%
    08:00 +19°C° 0 mm 2 m/S 668 mmHg 70%
    09:00 +23°C° 0 mm 2 m/S 668 mmHg 53%
    10:00 +27°C° 0 mm 2 m/S 669 mmHg 37%
    11:00 +29°C° 0 mm 2 m/S 669 mmHg 29%
    12:00 +32°C° 0 mm 2 m/S 668 mmHg 21%
    13:00 +35°C° 0 mm 1 m/S 668 mmHg 13%
    14:00 +34°C° 0 mm 1 m/S 668 mmHg 13%
    15:00 +34°C° 0 mm 1 m/S 667 mmHg 12%
    16:00 +34°C° 0 mm 1 m/S 667 mmHg 12%
    17:00 +30°C° 0 mm 1 m/S 666 mmHg 16%
    18:00 +27°C° 0 mm 1 m/S 666 mmHg 19%
    19:00 +23°C° 0 mm 1 m/S 665 mmHg 23%
    20:00 +22°C° 0 mm 1 m/S 665 mmHg 29%
    21:00 +20°C° 0 mm 2 m/S 666 mmHg 35%
    22:00 +19°C° 0 mm 2 m/S 666 mmHg 41%
    23:00 +18°C° 0 mm 2 m/S 666 mmHg 49%
    Mehr zeigen